Location: Campillo
(40.8621°N, 4.2488°W)
Time: 01:00:58
(UTC+00:00)

SJ-6B - Pass Details

Date: 29 September 2021
Orbit: 508 x 581 km, 97.6° (Epoch: 16 October)

Event Time Altitude Azimuth Distance (km) Brightness Sun altitude
Exits shadow 20:59:59 21° 289° (WNW) 1,309 5.3 -33.3°
Drops below altitude 10° 21:02:12 10° 320° (NW) 1,882 6.3 -33.6°
Sets 21:04:41 0° 334° (NNW) 2,774 7.1 -34.1°
